C/2010 U3 ( Boattini )

Japanese version
Home page
Updated on November 20, 2018

---------------------------------------------------------------------

* Profile

Discovery Date October 31, 2010
Magnitude 19.4 mag
Discoverer A. Boattini (Mt. Lemmon)

* Pictures

* Orbital Elements

Epoch 2019 Mar. 18.0 TT = JDT 2458560.5
T 2019 Feb. 26.63187 TT                                 MPCW
q   8.4454764            (2000.0)            P               Q
z  +0.0001980      Peri.   88.08692     -0.36205528     -0.74305302
 +/-0.0000004      Node    43.06729     +0.07255249     -0.62443485
e   0.9983281      Incl.   55.51174     +0.92932885     -0.24073498
From 1282 observations 2009 Sept. 16-2018 Mar. 25, mean residual 0".6.

* Finding Charts

* Magnitudes Graph

        m1 = 7.5 + 5 log d + 5.0 log r

---------------------------------------------------------------------

The orbital elements are published on M.P.E.C. 2018-F152.
The charts are made with StellaNavigator Ver.8 (AstroArts).
The magnitudes graphs are made with Comet for Windows.

---------------------------------------------------------------------

Copyright(C) Seiichi Yoshida (comet@aerith.net). All rights reserved.